GLOBALSTAR M004 DEB, 43356

Orbit data source: Space-Track

GLOBALSTAR M004 DEB, 43356 is space debris in LEO originally from a launch on Sat, 14 Feb 1998 UTC launched from the Air Force Eastern Test Range (AFETR). Debris objects in space refer to the collection of defunct objects orbiting the Earth. Examples of debris include non-operational satellites, rocket bodies, and fragments generated from explosions, collisions, or faulty payload assembly.

Loading next visibility...
Identifier
43356, 1998-008G
Orbit
LEO
Country
Flag of USUS
Related business
Manufacturer
Unknown
Mission
Spacecraft
Bus & Motor
Unknown
Mass
Unknown
Launch date (UTC)
1998-02-14 (28 years ago)
Launch vehicle
Unknown
Launch site
Air Force Eastern Test Range (AFETR)
Object type
Payload
Rocket body
Debris
Shape & HBR
Unknown shape, 0.1 m
Radar Cross Section
Small (<0.1 m²)

Expand to show TLE details & history
Last TLE update: 20 hours ago

TLE from 20 hours ago
0 GLOBALSTAR M004 DEB
1 43356U 98008G   25312.67137753  .00001039  00000-0  51226-2 0  9999
2 43356  51.9027  67.2802 0050965 114.1417 246.4796 12.78368818457080
Epoch: 2025-11-08T16:06Z
TLE epoch observation values (Epoch: 2025-11-08T16:06:47.018Z)
Latitude
-0.00007°
Longitude
137.48659°
Altitude
1,364.595 km
Speed
7.17 km/s
True Right ascension
04h 29m 07s
True Declination
0° 00' 00"
Sunlit
Object was in full shadow at epoch
Visualization orbit readout
Latitude
Unknown
Longitude
Unknown
Altitude
Unknown
Speed
Unknown
Apparent Right ascension
Unknown
Apparent Declination
Unknown
Sunlit
N/A
Visualization observer readout
Local Sidereal Time
08:24:46
Azimuth
Unknown
Elevation
Unknown
Doppler factor
Unknown
Orbital elements
Apogee altitude
1,387.824 km
Perigee altitude
1,309.067 km
Semi-major axis
7,726.582 km
Eccentricity
0.0051
Inclination
51.9027°
RAAN
67.2802°
Arg. of periapsis
114.1417°
True anomaly
245.94547°
Mean anomaly
246.4796°
Eccentric anomaly
246.2124°
Mean motion
3.19567 °/min
Orbital period
112.65 mins
BSTAR
0.0051226
Loading maneuver chart data...
Computing Atmospheric mass density...
Loading historical data...
Loading historical data...
Loading historical data...
Loading historical data...
Loading historical data...
Loading historical data...
Loading historical data...

Documentation

Showing up to 5 results
|